This demonstration page uses our WeatherBlox Daily Observations layout. Learn more.

40.92945, -100.16068

Hourly Observations for March 31, 2019

Temp ( °F °C ) Dew Point ( °F °C ) Humidity (%) Winds ( mph kmh ) Pressure ( in mb ) Visibility ( mi km ) Precip ( " mm )
12:15 am 00:15 Clear 28 -2.1 24 -4.3 85 85 WNW 6 9 30.53 1034 10 16.09344 0 0
12:35 am 00:35 Clear 28 -2.5 24 -4.5 86 86 WNW 5 7 30.53 1034 10 16.09344 0 0
12:55 am 00:55 Clear 27 -2.7 24 -4.6 87 87 WNW 5 7 30.53 1034 10 16.09344 0 0
1:15 am 01:15 Clear 28 -2.4 24 -4.2 88 88 WNW 5 7 30.53 1034 10 16.09344 0 0
1:35 am 01:35 Clear 28 -2.5 24 -4.6 86 86 WNW 6 9 30.53 1034 10 16.09344 0 0
1:55 am 01:55 Clear 27 -2.8 23 -4.8 86 86 WNW 6 9 30.53 1034 10 16.09344 0 0
2:15 am 02:15 Clear 27 -2.8 23 -4.9 86 86 WNW 7 11 30.53 1034 10 16.09344 0 0
2:35 am 02:35 Clear 27 -2.8 23 -5.1 84 84 WNW 7 11 30.53 1034 10 16.09344 0 0
2:55 am 02:55 Clear 27 -3 23 -5 86 86 WNW 7 11 30.53 1034 10 16.09344 0 0
3:15 am 03:15 Clear 26 -3.3 22 -5.5 85 85 NW 5 7 30.53 1034 10 16.09344 0 0
3:35 am 03:35 Clear 26 -3.6 22 -5.7 86 86 WNW 6 9 30.53 1034 10 16.09344 0 0
3:55 am 03:55 Clear 25 -3.7 22 -5.7 86 86 WNW 5 7 30.53 1034 10 16.09344 0 0
4:15 am 04:15 Clear 26 -3.6 22 -5.5 87 87 NW 5 7 30.53 1034 10 16.09344 0 0
4:35 am 04:35 Clear 25 -3.8 22 -5.7 87 87 WNW 5 7 30.53 1034 10 16.09344 0 0
4:55 am 04:55 Clear 26 -3.6 22 -5.7 86 86 W 5 7 30.53 1034 10 16.09344 0 0
5:15 am 05:15 Clear 25 -4 22 -5.7 88 88 WNW 5 7 30.53 1034 10 16.09344 0 0
5:35 am 05:35 Clear 25 -4 22 -5.8 87 87 Calm 30.53 1034 10 16.09344 0 0
5:55 am 05:55 Clear 25 -4 22 -5.6 89 89 Calm 30.53 1034 10 16.09344 0 0
6:15 am 06:15 Clear 24 -4.4 22 -5.8 90 90 WSW 3 6 30.53 1034 10 16.09344 0 0
6:35 am 06:35 Clear 24 -4.2 22 -5.8 89 89 Calm 30.53 1034 10 16.09344 0 0
6:55 am 06:55 Clear 24 -4.6 21 -6 90 90 Calm 30.53 1034 10 16.09344 0 0
7:15 am 07:15 Clear 24 -4.7 21 -6 91 91 Calm 30.56 1035 7 11.265408 0 0
7:35 am 07:35 Sunny 24 -4.6 21 -6 90 90 Calm 30.53 1034 7 11.265408 0 0
7:55 am 07:55 Sunny 24 -4.5 22 -5.8 91 91 Calm 30.53 1034 10 16.09344 0 0
8:15 am 08:15 Sunny 26 -3.6 23 -5 90 90 Calm 30.53 1034 10 16.09344 0 0
8:35 am 08:35 Sunny 27 -3 23 -4.8 88 88 Calm 30.53 1034 10 16.09344 0 0
8:55 am 08:55 Sunny 28 -2.2 24 -4.3 86 86 Calm 30.53 1034 10 16.09344 0 0
9:15 am 09:15 Sunny 30 -1.1 25 -3.7 83 83 SSW 3 6 30.5 1033 10 16.09344 0 0
9:35 am 09:35 Sunny 32 -0.2 26 -3.2 80 80 W 3 6 30.5 1033 10 16.09344 0 0
9:55 am 09:55 Sunny 33 0.5 27 -2.7 79 79 Calm 30.5 1033 10 16.09344 0 0
10:15 am 10:15 Sunny 36 2.3 25 -3.7 65 65 SW 7 11 30.48 1032 10 16.09344 0 0
10:35 am 10:35 Sunny 38 3.1 26 -3.2 64 64 WSW 7 11 30.48 1032 10 16.09344 0 0
10:55 am 10:55 Sunny 39 3.9 26 -3.3 60 60 SW 9 15 30.42 1030 10 16.09344 0 0
11:15 am 11:15 Sunny 40 4.5 26 -3.5 56 56 WSW 8 13 30.42 1030 10 16.09344 0 0
11:35 am 11:35 Sunny 41 5.1 26 -3.5 54 54 WSW 8 13 30.42 1030 10 16.09344 0 0
11:55 am 11:55 Sunny 44 6.4 26 -3.2 51 51 WSW 9 15 30.42 1030 10 16.09344 0 0
12:15 pm 12:15 Sunny 44 6.9 27 -3 50 50 SW 14 22 30.39 1029 10 16.09344 0 0
12:35 pm 12:35 Sunny 45 7.2 27 -2.9 49 49 WSW 10 17 30.39 1029 10 16.09344 0 0
12:55 pm 12:55 Sunny 46 8 26 -3.6 44 44 SW 13 20 30.36 1028 10 16.09344 0 0
1:15 pm 13:15 Sunny 47 8.3 26 -3.5 44 44 WSW 12 19 30.36 1028 10 16.09344 0 0
1:35 pm 13:35 Sunny 48 9.1 27 -2.8 43 43 SW 14 22 30.36 1028 10 16.09344 0 0
1:55 pm 13:55 Sunny 49 9.2 27 -2.7 43 43 SW 10 17 30.33 1027 10 16.09344 0 0
2:15 pm 14:15 Sunny 50 9.9 29 -1.9 44 44 WSW 13 20 30.3 1026 10 16.09344 0 0
2:35 pm 14:35 Sunny 51 10.3 29 -1.5 44 44 WSW 12 19 30.27 1025 10 16.09344 0 0
2:55 pm 14:55 Sunny 51 10.7 28 -2 41 41 WSW 10 17 30.27 1025 10 16.09344 0 0
3:15 pm 15:15 Sunny 52 11 28 -2 41 41 SW 12 19 30.27 1025 10 16.09344 0 0
3:35 pm 15:35 Sunny 53 11.7 30 -1 42 42 W 12 19 30.24 1024 10 16.09344 0 0
3:55 pm 15:55 Sunny 53 11.9 28 -2 38 38 SW 9 15 30.24 1024 10 16.09344 0 0
4:15 pm 16:15 Sunny 54 12.2 28 -2.4 36 36 WNW 9 15 30.18 1022 10 16.09344 0 0
4:35 pm 16:35 Sunny 55 12.5 27 -2.7 35 35 W 13 20 30.18 1022 10 16.09344 0 0
4:55 pm 16:55 Sunny 55 12.8 27 -2.8 34 34 SW 12 19 30.18 1022 10 16.09344 0 0
5:15 pm 17:15 Sunny 55 12.8 27 -2.8 34 34 SW 9 15 30.18 1022 10 16.09344 0 0
5:35 pm 17:35 Sunny 55 13 27 -2.6 34 34 WSW 6 9 30.15 1021 10 16.09344 0 0
5:55 pm 17:55 Partly Cloudy 55 13 28 -2.2 35 35 SW 9 15 30.15 1021 10 16.09344 0 0
6:15 pm 18:15 Sunny 55 13 27 -2.7 34 34 WSW 6 9 30.15 1021 10 16.09344 0 0
6:35 pm 18:35 Sunny 55 12.8 27 -2.8 34 34 SW 9 15 30.15 1021 10 16.09344 0 0
7:15 pm 19:15 Partly Cloudy 53 11.6 29 -1.4 41 41 WSW 3 6 30.15 1021 10 16.09344 0 0
7:35 pm 19:35 Mostly Cloudy 53 11.7 29 -1.6 40 40 SSW 7 11 30.15 1021 10 16.09344 0 0
7:55 pm 19:55 Partly Cloudy 50 9.9 32 -0.1 50 50 SW 3 6 30.18 1022 10 16.09344 0 0
8:15 pm 20:15 Clear 51 10.5 28 -2.2 41 41 WSW 3 6 30.18 1022 10 16.09344 0 0
8:35 pm 20:35 Clear 51 10.5 27 -2.7 40 40 Calm 30.18 1022 10 16.09344 0 0
8:55 pm 20:55 Clear 45 7 31 -0.5 59 59 SW 6 9 30.21 1023 10 16.09344 0 0
9:15 pm 21:15 Clear 46 7.6 30 -1.3 54 54 SSW 5 7 30.21 1023 10 16.09344 0 0
9:35 pm 21:35 Clear 44 6.6 30 -1.3 57 57 SSW 7 11 30.21 1023 10 16.09344 0 0
9:55 pm 21:55 Clear 44 6.9 28 -2.1 53 53 S 5 7 30.21 1023 10 16.09344 0 0
10:15 pm 22:15 Clear 42 5.5 29 -1.7 60 60 SW 6 9 30.21 1023 10 16.09344 0 0
10:35 pm 22:35 Clear 43 6.2 29 -1.5 58 58 SSW 9 15 30.21 1023 10 16.09344 0 0
10:55 pm 22:55 Clear 42 5.6 29 -1.6 60 60 S 10 17 30.21 1023 10 16.09344 0 0
11:15 pm 23:15 Clear 40 4.7 28 -2 62 62 S 9 15 30.24 1024 10 16.09344 0 0
11:35 pm 23:35 Clear 40 4.6 28 -2 63 63 S 10 17 30.24 1024 10 16.09344 0 0
11:55 pm 23:55 Clear 40 4.5 28 -2.1 63 63 S 10 17 30.21 1023 10 16.09344 0 0

Powered by AerisWeather